No.FOSSQuestion TitleDateViewsVotesAnswersUser
Affordable-LaptopUnable to access update files for off-line update2019-03-22 22/03/19701sethbharat
ScilabMODULUS in XCOS2019-03-20 20/03/191200raghu7862
PythonPython fossee fellowship reexam2019-03-19 19/03/192101rushic24
eSimunable to use esim_pspice library components2019-03-18 18/03/191901Malli
OpenModelicaNot installed on macos2019-03-16 16/03/191501amol_gp
Affordable-LaptopI want to install Linux into my hard disk instead of Flash Drive, How can I d...2019-03-13 13/03/192701Kishan
DWSIMequillibrium reactor2019-03-12 12/03/198902madhur14
eSimAbout changing the course2019-03-09 09/03/193301angadir...
eSimabsence of component in library2019-03-08 08/03/194501shivanshu
PythonSelf Learning Course March/April 20192019-03-06 06/03/194201meeraj
ScilabHelp a newbie; How to implement an equation?2019-03-05 05/03/193501Throwaway
eSimIC subcircuit cannot found2019-03-04 04/03/194601angadir...
Osdag2D views- report creation2019-03-04 04/03/195702nandanam1
PythonSelf Workshop2019-03-02 02/03/194503shweta_k
ScilabBuild a Band-pass Butterworth Filter2019-02-27 27/02/193200UnknowS...
ScilabORIGINALITY OF EXAMPLES2019-02-25 25/02/194401prankur...
eSimError while opening python plotting Editor. Please look at console for details2019-02-24 24/02/195501Katakam...
Affordable-LaptopWPS Office installation in Thinbook 13102019-02-22 22/02/195702mahesh464
ScilabCreate Xcos block with string parameter2019-02-14 14/02/195300dagomar
ScilabHow to plot with 2 vector as horizontal axis.2019-02-13 13/02/196102yanfanbl
RWhat after registraion?2019-02-13 13/02/1913001dishanisen
eSimCan not run the eSim software in Windows.2019-02-07 07/02/199001ANNESYA...
OpenFOAMNo creation of processed files even after running.2019-02-06 06/02/194801Rohan_S...
Affordable-LaptopNot able to hear sound2019-02-02 02/02/1914401sethbharat
eSimCan you provide the link for eSim installation for Windows 8?2019-02-01 01/02/1914101Subhashini
ScilabExample Naming Convention2019-01-30 30/01/1915202Parmana...
RBook proposal category2019-01-30 30/01/1918101MBhubanand
eSimHow to change the working directory of eSim?2019-01-30 30/01/1913602Subhashini
ScilabQuery regarding XCOS Super_f block2019-01-24 24/01/195200vamsi7862
Scilabpolar graph : invisible axis2019-01-17 17/01/195801Bilaz38
eSimSISO Experiment2019-01-15 15/01/1916101priyach...
Affordable-LaptopAugmenting memory2019-01-15 15/01/1913701Manoj
eSimError in simulating the circuit12019-01-14 14/01/1915601priyach...
eSimError in simulating the circuit2019-01-11 11/01/1916501priyach...
DWSIMIssues related to DWSIM in mac2019-01-08 08/01/1916302viggi08
eSimsimulation error2019-01-07 07/01/1920005priyach...
Affordable-LaptopReminna Remote connection in Debian Thinbook and RDP connection from Windows PC2019-01-05 05/01/196802mahesh464
ScilabAbout Xcos project2019-01-02 02/01/198901CBChoud...
ScilabBook proposal2019-01-02 02/01/199801CBChoud...
Scilab'syms' function2018-12-29 29/12/189501Akhtar
PythonQuiz-6 -- Unable to continue2018-12-28 28/12/1811201Bhaghyesh
PythonPractice data structures_exercise_question_82018-12-26 26/12/1810401Bhaghyesh
DWSIMupload user define compound2018-12-23 23/12/1811301mehul09
ScilabEquivalent function for heaviside in scilab2018-12-20 20/12/1811602Akhtar
DWSIMDWSIM Wastewater treatment process2018-12-20 20/12/1812401Shubhas...
ScilabI sent a book proposal some days before . I made mistakes in proposal .I want...2018-12-18 18/12/189701CBChoud...
Affordable-Laptopnetwork connectivity2018-12-18 18/12/189511rucha
Image Processing Toolboximage processing functions are not responding2018-12-18 18/12/189900Yogin
OpenFOAMChoosing exact boundary conditions2018-12-18 18/12/189501razon13...
ScilabGet state vectors of state space block during simulation2018-12-17 17/12/188103alexandru
OpenFOAMRegarding Proposal2018-12-17 17/12/187901chetant...
OpenFOAMQuery regarding heat flux boundary condition in OpenFOAM2018-12-16 16/12/187201gikkutom
Affordable-LaptopUnable to connect laptop with smart tv2018-12-15 15/12/1811303SadasivamM
Affordable-LaptopMalfunctioning of the laptop2018-12-15 15/12/189901Priya_s...
OpenFOAMHeat flux boundary condition in OpenFOAM2018-12-15 15/12/1810301gikkutom
Affordable-Laptopkdenlive app image was working fine - now freeze in timeline, position marker...2018-12-10 10/12/189501ranipv
eSimReverse Characteristics of Diode2018-12-08 08/12/1818701Gloria
eSimCurrent source in eSim2018-12-08 08/12/1810401Gloria
Affordable-LaptopVLC MEDIA PLAYER2018-12-07 07/12/1810701GSMahap...
Affordable-LaptopUninstallation2018-12-07 07/12/189711GSMahap...
eSimInstallation of eSim software2018-12-06 06/12/1815503SAI14
Affordable-Laptopmissing qt and wxt terminals from gnuplot 5.2.52018-12-06 06/12/1815306ranipv
DWSIMProblem with "Valve"2018-12-05 05/12/1813703ferbg
ScilabProcessor in Loop, Hardware in Loop etc.2018-12-04 04/12/1811801dalaylama
DWSIMfind the enthalpy in python script2018-12-04 04/12/1811101mehul09
Affordable-LaptopIssue with offline update 32018-11-28 28/11/1813601manojku...
eSimSoftware download2018-11-28 28/11/1814401sweety
Affordable-LaptopError occured while updating the System2018-11-27 27/11/1818501Jitendr...
Affordable-LaptopEven after installing updates 2 and 3 the issue persist2018-11-26 26/11/1819601Jothi
Affordable-LaptopISO file of OS(Debian)2018-11-26 26/11/1814401Jitendr...
eSimUnable to find esim installer2018-11-26 26/11/1813001Prakash14
Affordable-LaptopDisk space (won't let me post unless title is longer than 12 characters, henc...2018-11-25 25/11/1820701Manoj
Affordable-LaptopLED above F3 key2018-11-24 24/11/1820802Manoj
ScilabHow to use the oscilloscope?2018-11-23 23/11/1812501Batmano
DWSIMRigourous Distillation column error with image file2018-11-21 21/11/1813001DoshiVarun
Affordable-LaptopNo LAN Port to the device. How can I use LAN wired connections to this Machin...2018-11-21 21/11/1813803balupp
Affordable-Laptopunable todetect sd card2018-11-15 15/11/1813301peeyush...
Affordable-LaptopProblem with Voice Record2018-11-15 15/11/1813701laxman-cs
Affordable-LaptopRegarding Devanagari Typing2018-11-15 15/11/1813310Vikram
Affordable-LaptopProblem with WiFi connection2018-11-15 15/11/1818801Vikram
Affordable-LaptopWEBCAM app: Videos inaccessible2018-11-15 15/11/1818101sumedha...
Affordable-LaptopInaccessible Hard disk2018-11-15 15/11/1811101sumedha...
Affordable-LaptopBattery Drainage2018-11-12 12/11/1813001Kishan
OpenFOAMBoundary condition at inlet2018-11-11 11/11/1815202sourav0921
Affordable-LaptopTo update Windows 10 software version in Linux OS (Thinbook)2018-11-04 04/11/1823801christo...
Affordable-LaptopCan not play vedio2018-11-03 03/11/1818711Dr_kalpana
DWSIMerror in a kinetic reaction2018-11-01 01/11/1818501mehul09
Scilabwave synthesis analysis using laplace transform2018-10-31 31/10/1822201priyada...
Affordable-LaptopAffordable laptop with Hard disk2018-10-31 31/10/1830713dadas
Affordable-LaptopUBS Port not functioning2018-10-31 31/10/1821811sharma49
Affordable-LaptopNo stereo sound2018-10-31 31/10/1815711b4balu
ScilabMoving average2018-10-26 26/10/1812801Noiser1234
Affordable-LaptopSound not working!2018-10-26 26/10/1817311mohamed.ld
Scilabcsim message "Excessive work done on this call"2018-10-26 26/10/1818901felipet...
ScilabData import from clipboard2018-10-25 25/10/18702502Noiser1234
ScilabString Handling in Scilab Xcos V5.5.22018-10-17 17/10/1824201Poornac...
ScilabDifferent tasks PLEASE HELP2018-10-14 14/10/1825301joosep
eSimpcbnew layout straight to ngspice?2018-10-08 08/10/1821601coupsde...
DWSIMerror in LLE ternary graph utility2018-10-08 08/10/1826402mehul09
Scilabscetoexe not working2018-10-05 05/10/1819400anupam
eSimNot able to open examples in esim, its showing " The system cannot find the s...2018-10-01 01/10/1817301nsnairtvm
eSimUnable to proceed with Setup program2018-09-30 30/09/1816201ksmk31
OpenFOAMFoam::error::printStack(Foam::Ostream&) at ??:?2018-09-27 27/09/1821801razon13...
OpenFOAMContinuity error cannot be removed by adjusting the outflow.2018-09-19 19/09/1829301razon13...
ScilabVoronoi Diagrams2018-09-17 17/09/1817501ritu_2306
DWSIMdoubt regarding reaction furnace and condenser2018-09-15 15/09/1818701rajat
Pythonlinspace is not found . i have window 32 bit. plz help me out .2018-09-15 15/09/1814501sushma
ScilabWhat is algebraic Loop? When it Occurs in Xcos? How to Overcome it?2018-08-31 31/08/1837301arundso...
ScilabRegarding Scilab commands xcorr2018-08-29 29/08/1819401Ajay
DWSIMError in stichiometry2018-08-24 24/08/1822103drmanka...
DWSIMSimulation of process model for n number of data points or observations2018-08-24 24/08/1820501drmanka...
DWSIMDevelopment of graphical user interface in Excel2018-08-24 24/08/1820701drmanka...
eSimwhile opening the schematic window this error occur?2018-08-13 13/08/1826501duraira...
ScilabSet logarithmic scale in Sgrayplot2018-08-02 02/08/1822100Matias
DWSIMabout flowsheet submission2018-07-29 29/07/1836901mehul09
PythonThe circulate.zip error2018-07-27 27/07/1820701prateek...
FOSSEE LaptopFOSSEE OS linke is down2018-07-23 23/07/1829401mrf3
DWSIMabout a scrubber design2018-07-22 22/07/1826601mehul09
DWSIMPipe unit operation2018-07-14 14/07/1825401Rick63
OpenFOAMConvergence in Open Foam Simulation2018-07-13 13/07/1822301ben
DWSIMAbout internship's forms2018-07-05 05/07/1826611mehul09
OpenFOAMSalome bentpipe to OpenFOAM2018-07-02 02/07/1830601Happys5
SBHSWhat is Error while running the Python based "run" file ?2018-06-29 29/06/1824601Moh005
PythonRegarding quiz 62018-06-27 27/06/1819401Akash_1998
Scilaba general forum question2018-06-25 25/06/1863301maxcy
Scilabfunction return2018-06-25 25/06/1824405maxcy
ScilabSciLab 6.0.1 and Symbolic Toolbox2018-06-25 25/06/1848002kamienn...
DWSIMSimulating a condensor2018-06-24 24/06/1828601Aftab
Scilabtutorial 15 not working2018-06-23 23/06/1827300maxcy
ScilabDouble integration by Scilab2018-06-21 21/06/1833400gu08134...
DWSIMPython Documentation For DWSIM2018-06-21 21/06/1828801ParaK
ScilabFFT processing block in XCOS2018-06-21 21/06/1838601shriniv...
DWSIMBubble Column Reactor Substitute2018-06-20 20/06/1827701ParaK
ScilabGet all the file name of a directory in a list2018-06-19 19/06/1821501sarahi
Scilabdebugger acting screwy2018-06-19 19/06/1820900maxcy
ScilabI am finding it difficult to interpret this graph2018-06-18 18/06/1823300chandra...
Scilabmore debugger questions2018-06-18 18/06/1824301maxcy
ScilabTemperature Distribution in a Square2018-06-17 17/06/1824400Karthik
Scilabprint Question2018-06-17 17/06/1822001maxcy
ScilabGaussian Elimination Tutorial again2018-06-17 17/06/1822600maxcy
Scilabposting question from the tutorial link doesn't work2018-06-17 17/06/1824201maxcy
Scilabdebugging a tutorial example2018-06-17 17/06/1834002maxcy
ScilabImplement a Scilab Program for Temperature of a Radioactive rod2018-06-16 16/06/1823500Karthik
Scilabplotting a deff2018-06-16 16/06/1821201maxcy
Scilabhow to check if a random process in wss in scilab2018-06-16 16/06/1821401chandra...
Scilabdebugging SciLab examples2018-06-15 15/06/1824701maxcy
Scilabdeveloping in SciLab2018-06-15 15/06/1820601maxcy
ScilabGaussian Elimination Tutorial2018-06-14 14/06/1830300maxcy
Scilabscilab posting question2018-06-14 14/06/1825501maxcy
Scilabspoken_tutorial site2018-06-11 11/06/1822201maxcy
ScilabMAC, can´t write to a file2018-06-10 10/06/1823800ot
eSimquestion and answer list out of date?2018-06-07 07/06/1822701johnCro...
ScilabScilab - Ballistic problem2018-06-05 05/06/1824700Yetem
eSimwhen I download eSim installer for windows Norton secrity rejects it2018-06-04 04/06/1825301johnCro...
DWSIMCompound not available2018-06-01 01/06/1824801Hemanand
DWSIMhelp about vinyl chloride2018-05-28 28/05/1822301M_A_P
DWSIMCrude Desalter Simulator2018-05-27 27/05/1826001vbs305
DWSIMseparator column in compound separater2018-05-26 26/05/1821001bheemesh
DWSIMfixing the output data for a given problem2018-05-26 26/05/1823201bheemesh
Signal Processing ToolboxChecking stationarity of a random process2018-05-26 26/05/1817800chandra...
ScilabUnable to install FOSSEE Optimisation toolbox2018-05-25 25/05/1830101arian
ScilabHow to find inverse laplace transform in scilab2018-05-24 24/05/1847900chandra...
PythonError in print statement2018-05-22 22/05/1820501manavsa...
Scilabscale of axes2018-05-22 22/05/1820901RudiLehn
DWSIMConversion reactor2018-05-22 22/05/1828604srwasan
DWSIMUNIQUAC package with default flash doesnot converge.2018-05-18 18/05/1830503teja9006
OpenFOAMUsing multiInteraction type patchInteractionModel2018-05-16 16/05/1825201surajiitk
eSimlooking for a VCO component2018-05-15 15/05/1825001cuichi
ScilabScilab-Isosurfaces2018-05-03 03/05/1824100lacastelos
ScilabHelp Scilab Isosurfaces2018-05-03 03/05/1821800lacastelos
ScilabIsosurfaces Scilab2018-05-03 03/05/1823800lacastelos
ScilabIsosurfaces - Help Scilab2018-05-03 03/05/1824600lacastelos
ScilabHow to do range filter of image??2018-05-02 02/05/1827500anil_mca4
ScilabHow do I retrieve a file from scilab that seems like it has been deleted?2018-04-28 28/04/1824501frida
ScilabError installing symbolic toolbox2018-04-25 25/04/1828900dhruvpa...
DWSIMBrine evaporation in DWSIM2018-04-21 21/04/1834001nagaraj...
PythonRegarding review of given question2018-04-18 18/04/1824601darpitk...
Scilabvery poor .pdf file2018-04-11 11/04/1825603maxcy
Scilabcompile and run is screwed up2018-04-11 11/04/1827402maxcy
eSimproblem with the analysis tab2018-04-06 06/04/1822501nivedita
ScilabMux/Demux vs Bus 22018-04-05 05/04/1823500Antonio
ScilabMux/Demux vs Bus2018-04-05 05/04/1828200Antonio
Pythonregarding task submision2018-04-04 04/04/1829402saitejm...
DWSIMRegarding adding compuonds in DWSIM2018-04-04 04/04/1851901Priyam_...
DWSIMAbout unit operations in DWSIM2018-04-03 03/04/1835201Parth
OsdagOSDAG installation problem2018-04-02 02/04/1829101Yallama...
Pythonhow to download certficate2018-03-31 31/03/1831501dharmesh7
eSimYour schematic contain unknown model lm317at2018-03-31 31/03/1831201sainath...
Pythoncan miss any quiz generate problem in issue the certificate2018-03-30 30/03/1825201Abhi9839
ScilabCPGE MODULE Bode parms2018-03-30 30/03/1829401AVISHVAk
Pythoncan't attempt the quiz 52018-03-30 30/03/1824101Bhargavi
Pythoncan't attempt the quiz 62018-03-30 30/03/1822901Tulasi
eSimError while plotting python plot editor. How do i rectify it?2018-03-29 29/03/1830801Sushmitha
eSimAbout Kicad library2018-03-29 29/03/1827501PoonamC...
Pythonmistakenly opened the quiz 12018-03-29 29/03/1823901dharmesh7
PythonQuize3 ragarding assignment submission #2018-03-28 28/03/1823201tejesh002
eSimkey error in source2018-03-28 28/03/1828601kavyada...
Osdagosdag is not opening2018-03-27 27/03/1832401sohilreddy
OsdagError while installation2018-03-26 26/03/1829601mokaeswar
PythonError in downloading certicate2018-03-25 25/03/1829001chetan_g
eSimHow to load components library2018-03-24 24/03/1830601ArshadR...
eSimError while opening python plotting Editor. Please look at console for more d...2018-03-23 23/03/1833402Sravani...
Scilabhow to identify exe file in Scilab2018-03-23 23/03/1829902padmavati
Signal Processing ToolboxOctave Interface Toolbox not installing (FOSSEE 2018 Fellowship)2018-03-23 23/03/1825501a_Xiu
eSimShows that schematic contains unknown model2018-03-23 23/03/1826801VSKhama...
Osdagexample.osi file not opening2018-03-22 22/03/1830001Subrata...
OsdagLAUNCHING OSDAG2018-03-22 22/03/1838002Hoshil_...
eSimERROR: Your schematic contain unknown model jfet_n_pspice2018-03-22 22/03/1831202Sravani...
DWSIMCATALYST is not present2018-03-22 22/03/1834402e.santosh
eSimabout coding2018-03-21 21/03/1827101PoonamC...
eSimWhy esim software is closing after few seconds after installing it2018-03-20 20/03/1828701ArshadR...
OsdagThis is a Test Question for OSDAG2018-03-19 19/03/1829601user100
PythonDoes The yaksh course BPPY is availble Through out the year?2018-03-19 19/03/1855001dave
eSimerror while opening python plotting editor2018-03-19 19/03/1829001Mayankb23
ScilabScilab 2C toolbox2018-03-19 19/03/1833901Akhil
eSimComponents missing in " Choose Component "2018-03-19 19/03/1830001Mayankb23
Scilabwhat is this toolbox2018-03-18 18/03/1827701maxcy
Scilabwindows version of scimax2018-03-18 18/03/1830201maxcy
Scilabcompiling from scilab2018-03-18 18/03/1833702maxcy
eSimUnable to load all the components in the respective libraries2018-03-18 18/03/1828101Sravani...
Python'linspace' not defined in canopy editor2018-03-17 17/03/18104701ankurrj5xe
Signal Processing ToolboxError while installing ocatave interface toolbox, required for DSP toolbox2018-03-17 17/03/1826401iakashp
eSimUnable to create a project2018-03-17 17/03/1847801Sravani...
eSimError in project creation2018-03-17 17/03/1829401Udit
eSimerror while opening a schematic2018-03-16 16/03/1828701vaishna...
eSimesim source i am not able to access2018-03-16 16/03/1830201ELDHO_SOY
eSimerror with source detail2018-03-16 16/03/1828601shubhpriya
OpenModelicaThis is a Test Question2018-03-16 16/03/1824301user100
Pythoni have a list assume 10 data in the list. If i want to remove number 3 to 8 d...2018-03-16 16/03/1823901jitendra
Scilabcall_scilab help file questions2018-03-16 16/03/1829100maxcy
Osdagosdag software not opening2018-03-15 15/03/1851601Subrata...
ScilabDesign of fir filters using windowing technique2018-03-14 14/03/1836700chandra...
PythonWhere can I find the data files and images required for the course?2018-03-13 13/03/1837401anuragr
eSimua741 pin details2018-03-13 13/03/1827802ashish
eSimAll the components are not downloaded.2018-03-12 12/03/1827101gaytrip...
PythonWhere can i found Python course?2018-03-12 12/03/1829001marmikp...
eSimerror: dos not contain any kicad netlist file for conversion2018-03-12 12/03/1836301shubhpriya
Scilabscilab and linux2018-03-11 11/03/1834401maxcy
Pythonimport error2018-03-11 11/03/1825201tharuna...
Signal Processing Toolboxlinux and Scilab2018-03-10 10/03/1832901maxcy
PythonInterface to submit questions.2018-03-09 09/03/1842201shubhan...
ScilabScilab Symbolic Toolbox2018-03-09 09/03/1877302maxcy
Scilabatoms toolbox and syms2018-03-08 08/03/1835000maxcy
OpenFOAMWhy Initial residual is not equal to the final residual obtained from the pre...2018-03-07 07/03/1845901ankur_garg
eSimcannot open project2018-03-07 07/03/1838303agrahara
eSimissue regarding number of ports2018-03-05 05/03/1827801anudeep...
ScilabConvolutional Neural Network2018-03-05 05/03/1831301advait
Scilabis the cloud working2018-03-05 05/03/1827801maxcy
Scilabevans code example not working2018-03-05 05/03/1835801maxcy
eSimPython plotting missing2018-03-04 04/03/1828301sounnda...
Scilabwhat is syms and how does it affect the code2018-03-04 04/03/1869902maxcy
Scilabsgrid from definition example2018-03-03 03/03/1828401maxcy
eSimNot able to start up the schematics.2018-03-03 03/03/1833701bunty.him
Scilabrerunning cloud code2018-03-03 03/03/1828501maxcy
Scilaba warning message2018-03-03 03/03/1828901maxcy
Scilabimporting .sce file2018-03-03 03/03/1830502maxcy
eSimCannot find 'eSim_' files in the components library2018-03-02 02/03/1830801rishabh...
Scilabwhy do we plot digital filter spectrum on 0 - 0.5 only2018-03-02 02/03/1827901chandra...
Scilabxgrid() is a no show2018-03-02 02/03/1833202maxcy
Scilabcopying code doesn't wotk2018-03-01 01/03/1829702maxcy
ScilabConvolutional Neural Network using the Caffe model2018-03-01 01/03/1830700advait
eSimsimulation problem in cmos inverter2018-03-01 01/03/1830002ajinkya...
eSimCan't seem to create a new project2018-03-01 01/03/1837102rishabh...
Scilabcsim coding question2018-03-01 01/03/1826501maxcy
Scilabcloud book examples not working2018-02-28 28/02/1829901maxcy
Scilabroot locus code from scilab book2018-02-28 28/02/1858202maxcy
Scilabposting questions2018-02-28 28/02/1829100maxcy
Pythoncanopy not available2018-02-28 28/02/1825401HarishS...
Scilabroot locus problem2018-02-28 28/02/1830204maxcy
Scilabroot locus example problem2018-02-28 28/02/1827701maxcy
Scilabevans example problem2018-02-28 28/02/1827001maxcy
Scilabevans example problem2018-02-28 28/02/1828601maxcy
Scilabevans example problem2018-02-28 28/02/1829001maxcy
DWSIMDehydration Plant Simulation2018-02-27 27/02/1833502Haaresh...
ScilabReview duration2018-02-27 27/02/1827301dhruvpa...
eSimSquare wave in eSim2018-02-27 27/02/1829102ajinkya...
Scilabmatrix operator2018-02-24 24/02/1831104maxcy
eSimNon available componant2018-02-24 24/02/1826801jrangar...
Scilabcode syntax question from example code2018-02-23 23/02/1827902maxcy
FOSSEE LaptopDIFFICULTY IN INSTALLING AND RUNNING OPTIMIZATION TOOL BOX2018-02-23 23/02/1824701varadar...
ScilabAlternate instruction in scilab for filtic in matlab2018-02-23 23/02/1843301Raji
Scilabcode syntax question2018-02-22 22/02/1829002maxcy
ScilabMatlab equivalent2018-02-21 21/02/1838003maxcy
eSimUNKNOWN MODEL-lm555n2018-02-20 20/02/1830001shekhar
DWSIMDehydration Plant2018-02-19 19/02/1836401Haaresh...
ScilabCan anyone help me figure out how to work with microdaq2018-02-16 16/02/1833801chandra...
eSimtransient analysis2018-02-16 16/02/1835002sounnda...
Scilabsetup GUI home page2018-02-16 16/02/1832602maxcy
Optimization ToolboxFOSSEE optimization toolbox does not load under Scilab 5.5.2/Windows 72018-02-12 12/02/1827602mottelet
Scilab-Arduinonot able to open the icon2018-02-10 10/02/1832902nilashri
Scilabregarding XCOS2018-02-10 10/02/1832402nilashri
eSimPython plot error-reg2018-02-05 05/02/1835602Jeevash...
eSimWaveform generation2018-02-05 05/02/1832501KarthikaK
eSimvcc supply-reg2018-02-04 04/02/1832401Jeevash...
DWSIMProble with opening DWSIM file into software2018-02-02 02/02/1840201sbdongare
eSimno python plot2018-01-26 26/01/1832601sounnda...
DWSIMKinetic reaction2018-01-21 21/01/1835701Divyans...
eSimcommand not found2018-01-14 14/01/1846301sounnda...
DWSIMRigorous Distillation2018-01-12 12/01/1841701Divyans...
DWSIMPFR step size error2018-01-11 11/01/1836101Rutuaj24
eSimhow to open a new project?2018-01-10 10/01/1841501VENKATT...
eSimPython Plot error2018-01-07 07/01/1839001shefali04
ScilabWorking with scilab (DSP Lab) and Texas instruments dsp processor2018-01-05 05/01/1892802chandra...
eSimWhat exactly eSim is?2018-01-04 04/01/1830302siddhes...
FOSSEE Laptopliblapack.so.3gf2018-01-03 03/01/1838101ulima
DWSIMDisplaying reaction results2017-12-31 31/12/1736901Divyans...
eSimHow to give inputs to the IC's2017-12-28 28/12/1737201A.Karthik
eSimHow to set a Path?2017-12-27 27/12/1733601VENKATT...
eSimHow to work with This Software in Laptop?2017-12-27 27/12/1734403VENKATT...
ScilabProblem with visualisatioin of output of chebyshev type one filter.2017-12-24 24/12/1733901chandra...
DWSIMcan you suggest me the solution for the error I'm getting while designing met...2017-12-22 22/12/1736801Harshali
Scilabinput function is behaving in a inconsist function2017-12-20 20/12/17133301chandra...
eSimunable to give title of the project.2017-12-20 20/12/1736502A.Karthik
ScilabProblem with input command in scilab for reading mulitiple data2017-12-20 20/12/1734101chandra...
Scilab2d graph. Powers of a variable.2017-12-16 16/12/1730311Abbas
ScilabProblem with design of iir lpf filter.2017-12-15 15/12/1730801chandra...
eSimpython plotting error and global label error2017-12-15 15/12/1749801Vignesh
eSimesim installation problem2017-12-13 13/12/1782018shekhar
eSimgraphical error2017-12-12 12/12/1729402sounnda...
eSimunable to use eSim sources2017-12-09 09/12/1754902amolbed...
ScilabProblem in visualistion of the output2017-12-09 09/12/1734101chandra...
ScilabProblem installing Scilab 6.0 on ubuntu 16.04 LTS2017-12-06 06/12/1749801chandra...
ScilabSteps to install scimax toolbox on Scilab2017-12-06 06/12/1740701sudip.26
eSimconversion error, unknown component2017-12-02 02/12/1738503sounnda...
ScilabFIR Filter design2017-12-01 01/12/1731201Akhtar
ScilabProblem finding the DFT of the sequence as the length of sequence increases2017-11-30 30/11/1774901chandra...
OpenFOAMLooking for Solver for Three Phase Heat Transfer with phase change for Cryoge...2017-11-29 29/11/1735701arezes
ScilabN point FFT calculation2017-11-28 28/11/1738801chandra...
OpenFOAMResource persons for OPENFOAM Software.2017-11-22 22/11/1732901thprasads
eSimProblem in opening the schematic window after double clicking the esim icon.2017-11-15 15/11/1744014kksunda...
Scilabproblem matrix dimension2017-11-13 13/11/1733201Timmy
ScilabThe Weierstrass-Mandelbrot curve2017-11-12 12/11/1740101Deniro
eSimsteps to do after getting an approved mail2017-11-11 11/11/1731401AKSHAYA
eSimerror while using thyristor.2017-11-09 09/11/1746502sheena
eSimCircuit Rules check error in Gnd2017-11-07 07/11/1733901Gokul
eSimfinding input signal2017-11-06 06/11/1735601sounnda...
eSimerror in ERC2017-11-06 06/11/1743307sounnda...
ScilabWeiner kinchin relation code2017-11-06 06/11/1743101chandra...
eSim'plot_data_i.txt' and 'plot_data_v.txt' files cannot be created. why is this ...2017-11-04 04/11/1740703sheena
eSimerror while simulating the schematic.2017-11-02 02/11/1743402sheena
DWSIMDWSIM for membrane separation2017-10-30 30/10/1752601faya
OpenModelicaModelling a Spark Plug for simulation project.2017-10-30 30/10/1732601Leong
eSimabstract submission2017-10-28 28/10/1732901Karthik...
eSimCIRCUIT SIMULATION PROPOSAL FORM SUBMIT ERROR2017-10-24 24/10/1738602CHETAN1994
eSimlast date for circuit simulation2017-10-23 23/10/1735701sounnda...
eSimComponents not Available2017-10-20 20/10/1734401dharm_007
eSimhow to simulate 555 timer based astable multivibrator with esim?2017-10-19 19/10/1749701anil
eSimLaunching esim on my pc.2017-10-18 18/10/1735005Telegenic
eSimproiect name error2017-10-18 18/10/1736201Abhilas...
Signal Processing ToolboxA Missing Block (OTA) in Xcos tool box2017-10-16 16/10/1732701Narayan...
System Identification ToolboxIs a PHARMACY background STUDENT can develop a TCB2017-10-13 13/10/1729011prashan...
ScilabHOW TO USE SCILAB FOR PHARMACY EDUCATION REGARDING ACTION AND REACTION OF CHE...2017-10-13 13/10/1736101prashan...
PythonIs a computer background student can develop a TCB2017-10-13 13/10/1744601Anjusiva
eSimproposal form2017-10-11 11/10/1735501sjitm
eSimwhere can i find a 3-phase ac source.2017-10-10 10/10/1736801Abhinay123
eSimProposal Form for circuit simulation project.2017-10-09 09/10/1739801Abhinay123
DWSIMDownloading the Tutorials2017-10-03 03/10/1742701akash.s...
DWSIMIssue in DWSIM Software Installation2017-10-02 02/10/1752001akash.s...
ScilabGlitch in Scilab version 62017-09-17 17/09/1742001prnaren
DWSIMThree phase open-source library2017-09-13 13/09/1742201simon
DWSIMThree phase library open-source2017-09-13 13/09/1744401simon
DWSIMcan we use DWSIM for simulutions for a spray or rotay drier systems2017-09-07 07/09/1745301bhagath...
OpenFOAMdiffusivity directional variables2017-08-30 30/08/1744601ashok
ScilabStand alone exe. from Scilab 6.0.02017-08-24 24/08/1754801antony
Optimization ToolboxInstallation problem2017-08-19 19/08/1741601SRS24
ScilabInverted graph2017-08-19 19/08/1740001rajeshbm
Pythonunable to install canopy2017-08-18 18/08/1745301ulfa
ScilabCommands: syms, laplace, ilaplace2017-08-15 15/08/17134401ojumut
DWSIMinternship details2017-08-14 14/08/1743101goyalakash
OpenFOAMchange of volume inside pipe2017-08-11 11/08/1749703ashok
Scilabinput problem2017-08-11 11/08/1799801jsant100
DWSIMRegarding Submission of flow sheet and its deadline.2017-08-07 07/08/1744901miral
eSimhai friends caan any one resolve the problem attached in images?2017-08-05 05/08/1735601mahesh
ScilabIncorrect polynomial operations?2017-08-04 04/08/1740901leohpaz
ScilabCan't convert old diagram (problem in version) while using To Workspace (xcos)2017-08-02 02/08/1745501leohpaz
OpenFOAMOpenFOAM Issue with Porous Media and Buoyancy2017-08-02 02/08/1753801rudhkul
Optimization Toolboxexample problem required for understanding.2017-07-31 31/07/1742201ravinde...
DWSIMAssigning operating pressure for distillation column2017-07-27 27/07/1750001mbali20
ScilabParticleLabeling with IPCV toolbox command imlabel2017-07-26 26/07/1742201Hackmet
ScilabQuery regarding submission of code2017-07-20 20/07/1739801amitkum...
ScilabIs it possible convert a PSPICE code to scilab code?2017-07-17 17/07/1743201amitkum...
OpenFOAMvertical loading in interfoam2017-07-11 11/07/1743101hsai1991
OpenFOAMConvergence while using icoFoam2017-07-06 06/07/1750301ankur_garg
eSimUnable to load footprints while opening CvPcb2017-07-05 05/07/1776802HARISHBHAT
eSimUnable to map footprints2017-07-04 04/07/1747402HARISHBHAT
OpenFOAMSimulation Of Flow over cylinder with forward splitter plate2017-07-03 03/07/1746101maheshtom
ScilabImage in GUI2017-07-03 03/07/1747901jayati
eSimUNABLE TO INSTALL IN UBUNTU16.04 LTS2017-06-28 28/06/1738001mahesh
ScilabLab Migration Proposal2017-06-19 19/06/1742401dimple
ScilabProblem with xls_link Scilab tool2017-06-16 16/06/1740801MrWhite10
eSimCan't install eSim 1.1.2 on Ubuntu 162017-06-12 12/06/1748703pldissa...
OpenFOAMOpenFOAM-1.6.x Installation Error2017-06-07 07/06/1750401Samarendra
Scilabhttps://help.scilab.org/ not working2017-06-06 06/06/1762002rampras...
ScilabDubugging in Scilab2017-06-06 06/06/1747402rampras...
SBHSError while running program2017-06-01 01/06/1746801lalitch...
ScilabImage processing performance2017-05-31 31/05/1747602Hackmet
Pythonhow to join the course2017-05-27 27/05/1750501anjU
Computer Vision ToolboxBlob Detection and Analysis2017-05-22 22/05/1743002teju5531
ScilabScilab problem2017-05-22 22/05/1746901skitlesas
ScilabScilab task problem2017-05-22 22/05/1745801skitlesas
ScilabNeed help with scilab task2017-05-21 21/05/1743501skitlesas
eSimeSim ibraries missing2017-05-20 20/05/1741701Franky
OpenFOAMDynamic Moving Mesh2017-05-20 20/05/1746301Samarendra
OpenFOAMHow to Create Baffles in Geometry2017-05-17 17/05/171348-11ankur_garg
Scilabscilab version 6 related problem2017-05-17 17/05/1748301ruchisingh
eSimPassing option to ngspice2017-05-15 15/05/1744202buleks
DWSIMstep size becomes too small error in plug flow reactor2017-05-14 14/05/1760101Nikhil
DWSIMdouble clicking not opening main editing window2017-05-12 12/05/1743401Nikhil
Scilab"Abort" command in Scilab 6.0.02017-05-08 08/05/1786602Hackmet
Scilabimage processing error in scilab2017-05-05 05/05/1745501gowtham...
ScilabSample source file in book proposal form2017-05-05 05/05/1742901amitkum...
ScilabError while opening scilab.2017-05-03 03/05/1772701gowtham...
Scilabproblem with the opening environment window.2017-05-01 01/05/1752202GVP
DWSIMMulti component Distillation2017-04-25 25/04/1782801RajatSu...
OpenFOAMHow to create a internal gate?2017-04-25 25/04/1770701hsai1991
OpenFOAMCannot find flow at bottom surface_slump test2017-04-25 25/04/1751804ashok
OpenFOAMplotting at a definite point2017-04-14 14/04/1760701SUBHANKAR
OpenFOAMgetting time-average flow fields within certain time interval2017-04-09 09/04/1781401SUBHANKAR
OpenModelicaHOW TO APPROACH MULTIBODY SYSTEM IN OPEN MODELICA2017-04-07 07/04/1743102DURAISAMY
ScilabQuestion for plotting 2D2017-04-05 05/04/17130203chanyau...
OpenFOAMplotting skin friction coefficient2017-04-03 03/04/17137801SUBHANKAR
OpenFOAMlaminar separation bubble2017-04-02 02/04/1747301SUBHANKAR
OpenFOAMSnappyHexMesh Tutorial2017-04-01 01/04/1766201ankur_garg
Scilabxcos - rfile_f - input format2017-03-31 31/03/1782401ebike_dev
ScilabHow to define variable for a matrix?2017-03-29 29/03/1744101emerson...
OpenFOAMpressure plot in paraFoam2017-03-27 27/03/1788301SUBHANKAR
eSimError trying to create schematic (Ubuntu running under Win10)2017-03-24 24/03/1798406lreni
eSimngspice not running in eSim2017-03-22 22/03/1758904RG190564
eSimWarning at starting eSim and error at calling ngspice2017-03-21 21/03/1746601RG190564
DWSIMUnbalanced equation2017-03-19 19/03/1755302nas.fiq
Scilabscilab simulation error 21; Invalid index.2017-03-18 18/03/17142901adiblhf
Scilabsimulation problem2017-03-17 17/03/1750901adiblhf
eSimSOFTWARE IS NOT WORKING2017-03-17 17/03/1753901ajitsingh
OpenFOAMpost-processing in paraview2017-03-10 10/03/1785401SUBHANKAR
DWSIMDWSIM components2017-03-08 08/03/1765202nirbhay...
OpenFOAMHow to find/call each individual cell in a computational domain2017-03-08 08/03/17160303sarojdip
ScilabSimulation of pipe flow2017-03-01 01/03/1755201jasvinder
Image Processing ToolboxImage read and display problem2017-02-24 24/02/1745901ramansa...
eSimQuery Related Esim2017-02-24 24/02/1745301Sunil4u
FOSSEE LaptopTest Question2017-02-23 23/02/1741501test
ScilabVelocity profile2017-02-16 16/02/1744501jasvinder
Signal Processing Toolboxplease specify the complete detailed instruction of installing scilab symboli...2017-02-10 10/02/1746201dhatta
Scilab2D Lookup Table: How to do it??2017-02-07 07/02/1786402Prof.X
ScilabCompile call_scilab in c++ using Eclipse IDE Helios Service Release 22017-02-04 04/02/1753201phamish...
Scilabscilab cloud2017-02-03 03/02/1759203girishl
SBHSMachine ID 62017-02-03 03/02/1742201140020009
ScilabQUESTION IS x(t)=exp(a*t) while a>12017-01-26 26/01/1753811dhatta
OpenFOAMmultiPhaseEulerFoam case running issue..2017-01-17 17/01/1782901sarojdip
OpenFOAMBasic queries regarding cad, mesh and sim2017-01-16 16/01/1750902Rawnap07
ScilabXcos Block Wizard2017-01-16 16/01/1771501Shigeru
DWSIMRECYCLE STREAM2017-01-10 10/01/17102801thubelihle
ScilabHow to load file .dat with true variable name2017-01-07 07/01/17158903dafri
Scilabusage of scilab2016-12-30 30/12/1672301lipikas...
DWSIMSIMULATION inquiry2016-12-29 29/12/1657102thubelihle
Scilabplot crashes using scf under Xubuntu2016-12-28 28/12/1648301sebf
ScilabsciFLT toolbox - Unable to load block from...2016-12-25 25/12/1680801DLakomy
DWSIMHEAT EXCHANGER2016-12-04 04/12/1678001thubelihle
DWSIMOPEN SOURCE APPLICATION2016-12-03 03/12/1659205thubelihle
DWSIMFLASH DRUM SEPARATOR2016-12-03 03/12/1666901thubelihle
ScilabXcos: an equivalent simulink palette2016-12-01 01/12/1661901Naiara
eSimnot getting frequency response2016-11-26 26/11/1648101bibek
eSimnot fetting correct result2016-11-24 24/11/1649501bibek
OpenFOAMpost-processing problem2016-11-23 23/11/1668601SUBHANKAR
eSimNor getting coorrect output for a clamper circuit2016-11-23 23/11/1657301bibek
ScilabIPD BlobStatistics2016-11-22 22/11/1648601AllenMar
ScilabHow to install E4coder in Scilab2016-11-22 22/11/1648401Mohamed
ScilabAdding a non-numerical header for a text file of numerical column values in S...2016-11-21 21/11/1660601Farhan
ScilabCombining two text files to one in Scilab2016-11-21 21/11/1654701Farhan
OpenFOAMproblem in results2016-11-21 21/11/1655402SUBHANKAR
ScilabfscanfMat in GUI (PushButton)2016-11-18 18/11/1659602Hackmet
ScilabfscanfMat via PushButton?2016-11-18 18/11/1652501Hackmet
eSimNot getting the correct Python plot2016-11-18 18/11/1653801bibek
Scilabmaking a circle looking like a circle2016-11-16 16/11/1675202moon61
ScilabHelp required in running a C program in scilab2016-11-16 16/11/1690306Vijay_K...
eSimeSim on BOSS Linux (anoop)2016-11-14 14/11/1651701madhan
ScilabPlotting coordinates2016-11-11 11/11/1648801AllenMar
ScilabRandom binary sequence generator2016-11-10 10/11/1663901ashutumho
ScilabImplementing Matlab function in scilab2016-11-10 10/11/1654701Nisha
ScilabBitBucket Repo2016-11-09 09/11/1647301Anuradha
ScilabCACSD toolbox install2016-11-06 06/11/1656701Survind...
OpenFOAMopenfoam to firefoam throuh paraview?2016-11-01 01/11/16108503frances...
OpenFOAMNo vortex shedding2016-10-31 31/10/1655801SUBHANKAR
ScilabHow to install scilab communication toolbox for Scilab 5.5.12016-10-29 29/10/1657201kavyama...
ScilabHow to draw gear profile.2016-10-26 26/10/1656801Prashant05
OpenFOAMparaview tools2016-10-21 21/10/1661001SUBHANKAR
OpenFOAMerror while running a solver2016-10-13 13/10/16283701SUBHANKAR
OpenFOAMSurfaceTracking2016-10-06 06/10/1664101Arahata
eSimSimulation not working. Error while opening phyton plotting editor2016-09-29 29/09/1654001memobec...
eSimSimulation not working2016-09-29 29/09/1653101memobec...
OpenFOAMboundary condition2016-09-26 26/09/1653101SUBHANKAR
OpenFOAMplotting the residuals2016-08-23 23/08/16112801SUBHANKAR
eSimdc analysis reg2016-08-18 18/08/1648601krishna
OpenFOAMplotting in paraview2016-08-16 16/08/1657602SUBHANKAR
eSimRun setup2016-08-08 08/08/16117201Shubham
eSimDC Analysis _reg2016-08-04 04/08/1676702krishna
OpenFOAMco-efficient of drag and lift2016-08-03 03/08/1675104SUBHANKAR
OpenFOAMopemFoam2016-08-02 02/08/1667802mrinal
Scilabsivp TOOLBOX2016-07-22 22/07/16108906amol_gp
eSimerror while opening python plotting error2016-07-21 21/07/1676301Ramu
OpenFOAMPROBLEM2016-07-21 21/07/1677901SUBHANKAR
Scilabunable to install SIVP2016-07-20 20/07/1683401amish
eSimUnable to install eSim on Ubuntu2016-07-19 19/07/1675301Ramu
eSimInjecting noise2016-07-16 16/07/1677201dangel
eSimexecution error reg2016-07-13 13/07/1669501krishna
ScilabScimax - Scilab Symbolic Toolbox2016-07-12 12/07/16166904gsanchi...
eSimExecution reg2016-07-11 11/07/1669403krishna
eSimregarding Lab migration project2016-07-09 09/07/1671001bjena
ScilabScilab Xcos2016-07-06 06/07/16149101jalpa
ScilabScilab 5.5.2 - Xcos2016-07-06 06/07/16229605jalpa
eSimpython plotting window does not open up (On latest build of eSim)2016-06-26 26/06/1688103kavyama...
eSiminstallation reg2016-06-24 24/06/1677001krishna
OpenFOAMblockmeshdict file2016-06-23 23/06/1674701SUBHANKAR
ScilabSCILAB certification2016-06-22 22/06/1684601miniranis
ScilabSCILAB code for lotka voltera model2016-06-19 19/06/1677701amol_gp
ScilabNumerical Linearization (CACSD tool)2016-06-15 15/06/1680803madhan
OpenFOAMWriting blockMeshDict file2016-06-14 14/06/1674401SUBHANKAR
eSimeSim not working in windows 102016-06-06 06/06/1688101dangel
eSimundetaking form2016-05-31 31/05/1667901bjena
eSimesim training on skype2016-05-31 31/05/1669901bjena
DWSIMNew Compound Creator Study2016-05-26 26/05/16157501akashbt
OpenFOAMobject inspector menu in paraview2016-05-25 25/05/1686401SUBHANKAR
ScilabAnswer format in scilab2016-05-16 16/05/16150601nihalbisen
OpenFOAMTROUBLE IN SIMULATION2016-05-15 15/05/1699702SUBHANKAR
OpenFOAMSimulation of Euler-lagrangian bubble using OpenFOAM2016-05-11 11/05/16128402anirban...
OpenFOAMOPENFOAM IN WINDOWS2016-05-10 10/05/16107001SUBHANKAR
eSimProblem in getting started with eSim2016-05-06 06/05/1689402jebi
ScilabError in graphic plot2016-05-03 03/05/1691601mipeli
DWSIMHow to install and run DWSIM on MAC AIR?2016-04-25 25/04/16106402dprao
ScilabDebug a function plot2016-04-25 25/04/16143204rinkley
OpenFOAMHow to plot a graph in Open foam2016-04-24 24/04/16139201KVK
eSimproblem in creating project2016-04-23 23/04/1676001teny
DWSIMCreating component hypothetically2016-04-22 22/04/16283102krunal
ScilabReading a wav file2016-04-21 21/04/1694202Muralik...
eSimscilab contourf plot axis scaling2016-04-06 06/04/1690201max0924051
Scilabscilab plot contourf2016-03-31 31/03/1696803max0924051
eSimincorect ac simulaton2016-03-29 29/03/16750011mikimo...
eSimeSim Eeschema Diode component problem.2016-03-24 24/03/1693401Winderson
eSimunable to simulate dc power supply2016-03-23 23/03/1676201ankush
eSimImpossibilité de créer un subcircuit.2016-03-22 22/03/1678701jptt
eSimImpossibilité de créer un subcircuit.2016-03-22 22/03/1670003jptt
OpenFOAMError in Turbulence Solver2016-03-18 18/03/16530206KVK
eSimEnable to find AC voltage source2016-03-15 15/03/16220602ankush
Scilabplot sin(x)/x2016-03-14 14/03/16117502RudiLehn
OpenFOAMSimulation error (delta T is decreasing while the iterations are being carrie...2016-03-13 13/03/16417705KVK
FOSSEE LaptopCost and postal charge2016-03-11 11/03/1681201arasu
eSimInstallation error2016-03-10 10/03/1691701alex
Scilabsurf color with OS X2016-03-06 06/03/1676403RudiLehn
eSimTesting Forum Reply2016-03-01 01/03/16890011fahim
eSimUnable to get details of source2016-03-01 01/03/1686405ankush
ScilabVehicle Count2016-02-27 27/02/16104301chinnur010
DWSIMEquilibrium reactor simulation2016-02-26 26/02/16333202Parul_s...
eSimRegarding footprint2016-02-25 25/02/1674303pankaj
Scilabreading dcm images - error2016-02-16 16/02/16105301dr.cs1973
Scilabmpi in scilab2016-02-14 14/02/1683901Vadim
FOSSEE LaptopHindi Typing Layout2016-02-13 13/02/1663702sai
FOSSEE LaptopKiwix - Offline Wikipedia2016-02-11 11/02/1659601sai
DWSIMTextbook companion project2016-02-10 10/02/1688302vignesh...
Scilabdrop2016-02-10 10/02/1682103JeniVenit
Python"syms" not taking help!2016-02-09 09/02/1674101rishabh...
eSimUnable to run the simulation2016-02-09 09/02/1691604balu.ee...
eSimError while opening python plotting Editor.2016-02-05 05/02/1696204yogi
FOSSEE Laptopfeatures of laptop2016-01-29 29/01/1670102janabha...
eSimlab migration programe2016-01-29 29/01/1678501janabha...
ScilabFlood fill Operation in Scilab2016-01-20 20/01/16143001saraths
eSimunable to install e sim on linux2016-01-18 18/01/1680201yogi
eSimunable to install e sim on linux2016-01-18 18/01/1686401yogi
eSimGetting errors when simulating the basic logic gates2016-01-18 18/01/1678001abaruah
eSimSimulation of basic logic gates2016-01-18 18/01/1676601abaruah
eSimSimulation of basic logic gates2016-01-18 18/01/16122203abaruah
eSimError while openinf python plotting Editor2016-01-18 18/01/1691802abaruah
FOSSEE Laptopaudio-video recorded by kazam2016-01-14 14/01/1652002sai
eSimabout istallation on ubuntu2016-01-11 11/01/1677501yesmahi
ScilabHow to make and display calculation Table using scilab.2016-01-11 11/01/16317301taneja
FOSSEE Laptopoffline wikipedia2016-01-09 09/01/1654701sai
ScilabSolution provided in book is wrong2016-01-06 06/01/1691101taneja
ScilabShould answer in book exactly match the one from your code.2016-01-05 05/01/1689402taneja
DWSIMConversion of Reaction2016-01-04 04/01/16119301manikth...
FOSSEE LaptopHow can I get Fossee Laptop2016-01-01 01/01/1657701shridha...
DWSIMUnavailability of compounds in Database2015-12-24 24/12/15157602Y.K.Ara...
DWSIMTEXTBOOK COMPANION INTERNSHIP2015-12-23 23/12/1583601manikth...
ScilabWavelet transform in scilab2015-12-12 12/12/15185402aseemsr
eSimRight pane of footprint editor is empty2015-11-25 25/11/1582501kavyama...
eSimI am unable to Install eSim software.2015-11-25 25/11/1586501balu.ee...
eSimRegarding IN/OUT pin configuration2015-11-06 06/11/1589902upk345
eSimunable to add LM741 subcircuit2015-11-04 04/11/1589302sunitha
eSimConduction of workshop regarding2015-10-31 31/10/1574401boomaee...
Osdagmazhar2015-10-27 27/10/1563202mazhar
eSimunable to open esim source to place sine wave2015-10-25 25/10/1582702muqeeth
eSimEsim Not supported in Windows10-Reg2015-10-24 24/10/1581901srimaky
eSimunable to create project2015-10-24 24/10/151307-12muqeeth
eSimHow to plot voltage Vs current through a diode (Diode chara.)2015-10-23 23/10/15122004kavyama...
eSimProblem regarding current direction.2015-10-21 21/10/1577401samre1234
eSimhow to measure resistance2015-10-21 21/10/1570901samre1234
DWSIMTransient simulations and Stream wise report2015-10-21 21/10/15117801prnaren
eSimMeasurement of resistance in eSim.2015-10-18 18/10/1571801samre1234
eSimTo measure and plot the branch current.2015-10-16 16/10/1581301samre1234
eSimInstallation with Windows2015-10-15 15/10/1599302srinaths
FOSSEE Laptopbrightness decreases after 10-15 seconds2015-10-15 15/10/1556801Deepak
eSimError while opening python plotting editor.2015-10-14 14/10/1591502samre1234
eSimAPR33A32015-10-08 08/10/1577401Swetha
eSimyour schematic contains an unknown component vplot8_12015-09-26 26/09/15129201samre1234
eSimYour schematic contain unknown model tl0722015-09-22 22/09/1596201Ebardie
eSimWIndows installation2015-09-22 22/09/15112303Ebardie
FOSSEE Laptopmouse pad and LAN2015-09-20 20/09/1553301150100063
FOSSEE Laptopunable to download flash player2015-09-15 15/09/1557701Deepak
FOSSEE Laptopmouse pad + keybord2015-09-14 14/09/1554101Jogendra
FOSSEE Laptopregarding password2015-09-14 14/09/1554901150260019
SandhiWhile creating up counter block in python getting following erros at cmake2015-09-08 08/09/1578211Ashwini
SandhiWhile generating up counter block getting following error at cmake2015-09-08 08/09/1559001Ashwini
Sandhisandhi installation error2015-09-03 03/09/1559701Ashwini
Sandhi"Sandhi" installation2015-09-03 03/09/1559301Ashwini
OpenFOAMcharger making sparking like noise2015-08-31 31/08/1575101150020063
SandhiError Message2015-08-31 31/08/1567002Ashwini
FOSSEE Laptopkeyboard2015-08-26 26/08/1566601bittu
FOSSEE LaptopHotspot2015-08-25 25/08/1561402akshayk...
SandhiWay to create block in Python2015-08-24 24/08/1587501Ashwini
FOSSEE LaptopInternet not working through lan cable2015-08-23 23/08/1556202akshayk...
FOSSEE Laptopcamera2015-08-23 23/08/1556101Deepak
SandhiBy default it is taking C++ language.Why not asking for language?2015-08-13 13/08/1563301Ashwini
Sandhiwhile running make command I am getting following error2015-08-06 06/08/1562800Ashwini
Scilab-ArduinoError while executing exec loader.sce2015-08-05 05/08/15110202kinitrupti
Scilab-Arduinocommunication over ethernet instead of usb2015-08-05 05/08/1569801Rajanee...
Scilab-ArduinoWhich macros is being used? .sci or .bin!!!2015-08-05 05/08/1551202Rajanee...
Scilab-Arduinomodification in firmware for pwm freq setup2015-08-05 05/08/1569001Rajanee...
SandhiWhile developing source block in sandhi getting errors:2015-08-05 05/08/1564600Ashwini
Sandhigrep2015-08-04 04/08/1563100Ashwini
Scilab-ArduinoCost of Arduino board with shield2015-08-04 04/08/1558502Siva_J
SandhiI want to implement same block as constatnt block2015-07-28 28/07/1566902Ashwini
Scilab-ArduinoUnable to upload program with Scilab Arduino Toolbox2015-07-26 26/07/1594706Navdeep
SandhiI want to change number of input2015-07-23 23/07/1564201Ashwini
Sandhii have module named as D into that block sub. Now i am going to create anothe...2015-07-23 23/07/1573201Ashwini
FOSSEE Laptophow to enter bios setup2015-07-16 16/07/1567411namitka...
SandhiPorting Sandhi program on website2015-07-16 16/07/1563600anamaykane
FOSSEE LaptopNot able to install Flash Plugin in Firefox on FOSSEE2015-07-15 15/07/1559401namitka...
SandhiScilab code to Sandhi block2015-07-13 13/07/1572903anamaykane
FOSSEE Laptopprinter2015-05-06 06/05/1571426rodneyb...
PythonCheck if a file exists using Python2015-03-27 27/03/1596805test2
FOSSEE LaptopDamped audio through speakers and headphone2015-03-26 26/03/1571311Srikant